Location: The Saddle
(36.8333°N, 80.3417°W)
Time: 21:51:00
(UTC-05:00)

Vanguard 2 Rocket - Visible Passes

Search period start: 27 January 2022 00:00
Search period end: 06 February 2022 00:00
Orbit: 553 x 3325 km, 32.9° (Epoch: 27 January)

Date Brightness Start Highest point End Pass type
(mag) Time Alt. Az. Time Alt. Az. Time Alt. Az.
27 Jan 10.8 00:43:44 15° E 00:43:44 15° E 00:46:11 10° E visible
27 Jan 9.5 02:49:29 62° ESE 02:49:29 62° ESE 03:05:52 10° E visible
27 Jan 9.5 04:55:15 43° W 05:04:00 76° S 05:23:47 10° ESE visible
28 Jan 10.1 01:52:50 37° E 01:52:50 37° E 02:02:59 10° E visible
28 Jan 9.2 03:58:35 70° WSW 04:01:20 78° S 04:21:51 10° E visible
28 Jan 9.8 06:04:22 19° W 06:19:50 62° SSW 06:38:06 10° SE visible
29 Jan 10.7 00:56:11 18° E 00:56:11 18° E 00:59:50 10° E visible
29 Jan 9.4 03:01:57 68° ESE 03:01:57 68° ESE 03:19:23 10° E visible
29 Jan 9.6 05:07:43 38° W 05:17:21 70° SSW 05:37:01 10° ESE visible
30 Jan 10.0 02:05:19 41° E 02:05:19 41° E 02:16:31 10° E visible
30 Jan 9.2 04:11:05 64° WSW 04:14:48 75° S 04:35:14 10° ESE visible
30 Jan 9.9 06:16:51 16° W 06:32:50 52° SSW 06:50:43 10° SE visible
31 Jan 10.6 01:08:43 21° E 01:08:43 21° E 01:13:23 10° E visible
31 Jan 9.3 03:14:29 72° SE 03:14:29 72° SE 03:32:52 10° ESE visible
31 Jan 9.7 05:20:14 33° W 05:30:34 61° SSW 05:49:57 10° SE visible
01 Feb 9.8 02:17:54 45° ESE 02:17:54 45° ESE 02:30:01 10° E visible
01 Feb 9.2 04:23:40 56° WSW 04:28:11 69° SSW 04:48:24 10° ESE visible
01 Feb 10.1 06:29:26 12° W 06:45:40 42° SW 07:02:50 10° SSE visible
02 Feb 10.5 01:21:21 23° E 01:21:21 23° E 01:26:54 10° E visible
02 Feb 9.2 03:27:07 72° SSE 03:27:07 72° SSE 03:46:11 10° ESE visible
02 Feb 9.8 05:32:54 28° W 05:43:38 51° SSW 06:02:26 10° SE visible
03 Feb 9.7 02:30:36 48° ESE 02:30:36 48° ESE 02:43:27 10° ESE visible
03 Feb 9.3 04:36:23 49° WSW 04:41:26 60° SSW 05:01:13 10° SE visible
03 Feb 10.3 06:43:01 10° W 06:58:24 32° SW 07:14:12 10° SSE visible
04 Feb 10.4 01:34:08 25° E 01:34:08 25° E 01:40:23 10° E visible
04 Feb 9.2 03:39:55 66° S 03:39:55 66° S 03:59:16 10° ESE visible
04 Feb 9.9 05:45:41 23° W 05:56:35 41° SSW 06:14:22 10° SSE visible
05 Feb 9.6 02:43:29 49° SE 02:43:29 49° SE 02:56:44 10° ESE visible
05 Feb 9.5 04:49:15 41° WSW 04:54:36 49° SSW 05:13:34 10° SE visible
